Everett, WA
on Tuesday, November 13, 2012

Tuesday
Previous Day Next Day
Daily Summary
 ActualAverageRecord
Temperature
Mean Temperature °F °F  
Max Temperature 50°F 51°F 63°F (1953)
Min Temperature 48°F 38°F 9°F (1955)
Degree Days
Heating Degree Days 16    
Moisture
Dew Point 46°F   
Average Humidity 90    
Maximum Humidity 93    
Minimum Humidity 82    
Precipitation
Precipitation 0.28 in in in ()
Wind
Wind Speed 8 mph   
Max Wind Speed 10 mph   
Max Gust Speed mph   
Visibility 8 miles   
Events Fog , Rain   
Averages and records for this station are not official NWS values.
Key: T is trace of precipitation, MM is missing value
Source: NWS Daily Summary
Seasonal Weather Averages
Time(PST)TemperatureDew PointHumidity Pressure Visibility Wind DirectionWind SpeedGust SpeedPrecipitationEvents Conditions
12:16 AM 50.0°F 46.4°F 87% 30.21 in 10.0 miles South 9.2 mph - N/A   Overcast
12:53 AM 48.9°F 46.0°F 90% 30.22 in 10.0 miles SSE 10.4 mph - N/A   Overcast
1:09 AM 48.2°F 46.4°F 93% 30.21 in 10.0 miles SSE 10.4 mph - N/A   Overcast
1:21 AM 48.2°F 46.4°F 93% 30.20 in 10.0 miles SSE 10.4 mph - N/A   Overcast
1:37 AM 48.2°F 46.4°F 93% 30.20 in 8.0 miles SSE 10.4 mph - 0.00 in Rain Light Rain
1:53 AM 48.9°F 46.0°F 90% 30.21 in 4.0 miles SSE 10.4 mph - 0.02 in Rain Light Rain
2:53 AM 48.0°F 46.0°F 93% 30.20 in 3.0 miles SSE 8.1 mph - 0.05 in Rain Light Rain
3:53 AM 48.0°F 46.0°F 93% 30.19 in 10.0 miles SSE 8.1 mph - 0.02 in   Overcast
4:01 AM 48.2°F 44.6°F 87% 30.19 in 10.0 miles South 8.1 mph - N/A   Overcast
4:27 AM 48.2°F 44.6°F 87% 30.19 in 10.0 miles SSE 10.4 mph - 0.00 in   Overcast
4:53 AM 48.0°F 45.0°F 89% 30.19 in 10.0 miles SSE 9.2 mph - 0.00 in   Overcast
5:23 AM 48.2°F 46.4°F 93% 30.18 in 10.0 miles South 9.2 mph - N/A   Overcast
5:53 AM 48.0°F 46.0°F 93% 30.19 in 10.0 miles South 6.9 mph - N/A   Overcast
6:53 AM 48.0°F 46.0°F 93% 30.20 in 9.0 miles SSE 9.2 mph - N/A   Overcast
7:09 AM 48.2°F 46.4°F 93% 30.19 in 10.0 miles South 8.1 mph - N/A   Overcast
7:16 AM 48.2°F 46.4°F 93% 30.19 in 9.0 miles South 8.1 mph - N/A   Mostly Cloudy
7:53 AM 48.0°F 46.0°F 93% 30.20 in 9.0 miles SSE 6.9 mph - N/A   Overcast
8:01 AM 48.2°F 46.4°F 93% 30.19 in 0.5 miles SSE 6.9 mph - N/A Fog Fog
8:53 AM 48.0°F 46.0°F 93% 30.20 in 1.0 miles SSE 8.1 mph - N/A   Overcast
9:51 AM 48.2°F 44.6°F 87% 30.20 in 10.0 miles Variable 6.9 mph - N/A   Overcast
9:53 AM 48.9°F 45.0°F 86% 30.21 in 10.0 miles SSE 8.1 mph - N/A   Overcast
10:34 AM 48.2°F 46.4°F 93% 30.19 in 10.0 miles SSE 5.8 mph - N/A   Overcast
10:53 AM 50.0°F 45.0°F 83% 30.20 in 10.0 miles SSE 8.1 mph - N/A   Mostly Cloudy
11:53 AM 50.0°F 45.0°F 83% 30.18 in 10.0 miles SSE 6.9 mph - 0.00 in   Overcast
12:03 PM 50.0°F 44.6°F 82% 30.17 in 10.0 miles SSE 5.8 mph - N/A   Overcast
12:53 PM 50.0°F 46.0°F 86% 30.17 in 7.0 miles SSE 5.8 mph - 0.01 in Rain Light Rain
1:00 PM 50.0°F 46.4°F 87% 30.16 in 6.0 miles South 6.9 mph - 0.00 in Rain Light Rain
1:14 PM 50.0°F 46.4°F 87% 30.16 in 5.0 miles South 8.1 mph - 0.01 in Rain Light Rain
1:53 PM 50.0°F 46.0°F 86% 30.17 in 5.0 miles SSE 8.1 mph - 0.03 in Rain Light Rain
2:01 PM 50.0°F 46.4°F 87% 30.15 in 4.0 miles SSE 8.1 mph - 0.01 in Rain Light Rain
2:53 PM 50.0°F 46.9°F 89% 30.15 in 5.0 miles SSE 6.9 mph - 0.05 in Rain Light Rain
3:53 PM 48.9°F 46.9°F 93% 30.15 in 5.0 miles SSE 6.9 mph - 0.03 in Rain Light Rain
4:53 PM 48.9°F 46.9°F 93% 30.14 in 10.0 miles SSE 6.9 mph - 0.01 in   Overcast
4:55 PM 48.2°F 46.4°F 93% 30.14 in 10.0 miles South 8.1 mph - N/A   Overcast
5:53 PM 48.9°F 46.9°F 93% 30.15 in 8.0 miles SSE 9.2 mph - 0.02 in Rain Light Rain
6:53 PM 48.9°F 46.9°F 93% 30.14 in 7.0 miles SSE 6.9 mph - 0.01 in Rain Light Rain
7:53 PM 48.9°F 46.9°F 93% 30.14 in 6.0 miles Variable 3.5 mph - 0.00 in Rain Light Rain
8:48 PM 48.2°F 46.4°F 93% 30.14 in 10.0 miles SSE 8.1 mph - 0.03 in   Overcast
8:53 PM 48.9°F 46.0°F 90% 30.14 in 10.0 miles SSE 8.1 mph - 0.03 in   Overcast
9:53 PM 48.9°F 46.0°F 90% 30.15 in 10.0 miles Variable 4.6 mph - N/A   Overcast
10:11 PM 48.2°F 46.4°F 93% 30.15 in 10.0 miles SSE 5.8 mph - N/A   Overcast
10:23 PM 48.2°F 46.4°F 93% 30.15 in 10.0 miles SSE 5.8 mph - N/A   Overcast
10:53 PM 48.9°F 46.0°F 90% 30.16 in 10.0 miles Variable 6.9 mph - N/A   Overcast
11:00 PM 48.2°F 46.4°F 93% 30.15 in 10.0 miles SSE 8.1 mph - N/A   Overcast
11:53 PM 48.9°F 46.0°F 90% 30.18 in 10.0 miles SSE 6.9 mph - N/A   Overcast
Moon Phase
Nov. 13 Nov. 13 Nov. 20 Nov. 28 Dec. 06
Sunrise:07:13 AM (PST) Moon Rise:06:59 AM (PST)11/13
Sunset:04:33 PM (PST) Moon Set:04:28 PM (PST)11/13

Copyright © 2014 The Weather Underground, Inc.